Regional Weather Roundup
Issued by NWS

Home | Current Version | Previous Version | Graphics & Text | Print | Product List | Glossary On
Versions: 1 2 3 4 5 6 7 8 9 10 11 12 13 14 15 16 17 18 19 20 21 22 23 24 25 26 27 28 29 30 31 32 33 34 35 36 37 38 39 40 41 42 43 44 45 46 47 48 49 50
867
ASUS43 KOAX 300510
RWRNE

WEATHER ROUNDUP FOR NEBRASKA
NATIONAL WEATHER SERVICE OMAHA NE
1200 AM CDT SAT JUL 30 2016

NOTES: SATELLITE DATA IS BEING USED TO AUGMENT CLOUD COVER ABOVE
       12000 FEET.
       "FAIR" INDICATES FEW OR NO CLOUDS BELOW 12,000 FEET WITH NO
       SIGNIFICANT WEATHER AND/OR OBSTRUCTIONS TO VISIBILITY.

  * THESE STATIONS DO NOT REPORT WEATHER SUCH AS RAIN...SNOW OR FOG.

NEZ001>004-019>022-054>056-300600-
NEBRASKA PANHANDLE

CITY           SKY/WX    TMP DP  RH WIND       PRES   REMARKS
SCOTTSBLUFF    CLEAR     61  56  83 NE5       30.11R
ALLIANCE       CLEAR     62  60  93 SW8       30.07S
CHADRON        CLEAR     65  61  87 W8        30.04R
KIMBALL        CLEAR     64  60  86 S12       30.15S
SIDNEY         CLEAR     63  58  83 S12       30.12S
$$

NEZ057>060-069>072-079>082-300600-
SOUTHWEST NEBRASKA

CITY           SKY/WX    TMP DP  RH WIND       PRES   REMARKS
NORTH PLATTE   MOCLDY    68  65  90 E7        30.05F
LEXINGTON      PTCLDY    69  64  85 SE8       30.06S
MCCOOK         CLOUDY    70  65  84 E7        30.06F
OGALLALA       CLOUDY    70  63  80 CALM      30.06S
$$

NEZ005>010-023>029-035>040-094-300600-
NORTH CENTRAL NEBRASKA

CITY           SKY/WX    TMP DP  RH WIND       PRES   REMARKS
VALENTINE      PTCLDY    67  60  78 SE8       30.03S
AINSWORTH      PTCLDY    65  62  92 SE6       30.04S
BROKEN BOW     MOCLDY    66  63  90 SE8       30.06S
O`NEILL        CLEAR     67  60  78 SE5       30.06S
ORD            MOCLDY    66  60  81 SE5       30.04F
THEDFORD       CLOUDY    67  64  87 SE9       30.04F
$$

NEZ041-046>049-061>064-073>077-083>087-300600-
SOUTH CENTRAL NEBRASKA

CITY           SKY/WX    TMP DP  RH WIND       PRES   REMARKS
GRAND ISLAND   CLOUDY    66  62  87 SE5       30.07R
AURORA         CLOUDY    65  64  93 SE3       30.06S
HASTINGS       CLOUDY    68  61  78 E5        30.08R
HEBRON         PTCLDY    65  62  90 CALM      30.05R
HOLDREGE       CLOUDY    66  64  91 SE5       30.07S
KEARNEY *      MOCLDY    66  64  94 SE5       30.08R
YORK           PTCLDY    66  59  77 CALM      30.06R
$$

NEZ011>018-030>034-042>045-300600-
NORTHEAST NEBRASKA

CITY           SKY/WX    TMP DP  RH WIND       PRES   REMARKS
NORFOLK        PTCLDY    63  57  81 SE5       30.05S
ALBION         CLOUDY    64  59  85 CALM      30.05F
BLAIR          CLOUDY    65  62  88 NE3       30.05R
FREMONT        CLOUDY    67  61  80 E5        30.05R
TEKAMAH        CLOUDY    64  60  87 CALM      30.04S
WAYNE          MOCLDY    62  60  94 CALM      30.05S
$$

NEZ050>053-065>068-078-088>093-300600-
SOUTHEAST NEBRASKA

CITY           SKY/WX    TMP DP  RH WIND       PRES   REMARKS
LINCOLN        CLOUDY    71  63  75 E7        30.05R
OMAHA EPPLEY   CLOUDY    66  61  84 CALM      30.04S
BEATRICE       CLEAR     65  60  82 NE3       30.04R
FALLS CITY     CLEAR     68  64  87 CALM      30.02R
NEBRASKA CITY  PTCLDY    65  65 100 NE3       30.04S
PLATTSMOUTH    CLOUDY    65  63  90 NE5       30.03F
$$

NEZ044-045-051>053-067-300600-
OMAHA AREA

CITY           SKY/WX    TMP DP  RH WIND       PRES   REMARKS
OMAHA EPPLEY   CLOUDY    66  61  84 CALM      30.04S
BLAIR          CLOUDY    65  62  88 NE3       30.05R
FREMONT        CLOUDY    67  61  80 E5        30.05R
MILLARD        PTCLDY    69  62  78 CALM      30.03S
OFFUTT AFB     CLEAR     65  62  88 NE5       30.03R
PLATTSMOUTH    CLOUDY    65  63  90 NE5       30.03F
WAHOO          FAIR      65  62  90 CALM      30.04S
$$




USA.gov is the U.S. government's official web portal to all federal, state and local government web resources and services.